DELTA 1 DEB, 1313

Orbit data source: Space-Track

DELTA 1 DEB, 1313 is space debris in SSO originally from a launch on Fri, 22 Jan 1965 UTC launched from the Air Force Eastern Test Range (AFETR). Debris objects in space refer to the collection of defunct objects orbiting the Earth. Examples of debris include non-operational satellites, rocket bodies, and fragments generated from explosions, collisions, or faulty payload assembly.

Loading next visibility...
Identifier
1313, 1965-004D
Orbit
SSO
Last TLE update
3 days ago
Origin
Manufacturer
Unknown
Mission
Spacecraft
Bus & Motor
Unknown
Mass
~1 kg wet, ~1 kg dry
Launch date (UTC)
1965-01-22 (60 years ago)
Launch vehicle
Unknown
Launch site
Air Force Eastern Test Range (AFETR)
Object type
Payload
Rocket body
Debris
Shape & HBR
Box + 1 Cable, 3.5 m
Radar Cross Section
6.125 m², Small (<0.1 m²)

Expand to show TLE details & history

TLE from 3 days ago
0 DELTA 1 DEB
1 01313U 65004D   25131.33737926 -.00000372  00000-0 -54636-3 0  9996
2 01313  96.4245 267.8157 1175000  98.0807 275.4954 12.00780534638218
Epoch: 2025-05-11T08:05Z
Definitive object data (Epoch: 2025-05-11T08:05:49.568Z)
Latitude
-0.00005°
Longitude
-83.00709°
Altitude
1,700.5 km
Speed
7.017 km/s
True Right ascension
17h 51m 15s
True Declination
0° 00' 00"
Sunlit
Object was in full shadow at TLE epoch
Visualization TLE readout
Latitude
57.96015°
Longitude
108.83014°
Altitude
841.136 km
Speed
7.819 km/s
Apparent Right ascension
05h 47m 42s
Apparent Declination
13° 17' 58"
Sunlit
Object is in daylight
Visualization observer readout
Local Sidereal Time
17:07:57
Azimuth
348.021° N
Elevation
-35.987°
Doppler factor
1
Orbital elements
Apogee altitude
2,620.894 km
Perigee altitude
728.48 km
Semi-major axis
8,052.824 km
Eccentricity
0.1175
Inclination
96.4245°
RAAN
267.8157°
Arg. of periapsis
98.0807°
True anomaly
262.02698°
Mean anomaly
275.4954°
Eccentric anomaly
268.76471°
Mean motion
3.00345 °/min
BSTAR
-0.00054636
Orbital period
119.86 mins
Loading maneuver chart data...
Loading SW <> Apogee altitude chart data...
Loading historical data...
Loading historical data...
Loading historical data...
Loading historical data...
Loading historical data...
Loading historical data...
Loading historical data...
Other satellites on launch #4 in the year 1965 (1965-01-22 UTC)

DELTA 1 DEB Visibility forecast

Observer location: undefined°, undefined°

Span
Click to sort rows by Start time (UTC) header in descending order
Start Az.
Max El. time (UTC)
Max El. Az.
Max El.
End time (UTC)
End Az.
10 mins2025-05-14 10:11:03.237Z211.356° SW2025-05-14 10:16:03.237Z256.691° W23.567°2025-05-14 10:21:03.237Z319.091° NNW
9 mins2025-05-14 20:41:03.237Z47.041° ENE2025-05-14 20:45:03.237Z103.951° ESE25.058°2025-05-14 20:50:03.237Z151.304° SSE
9 mins2025-05-14 22:40:03.237Z337.823° N2025-05-14 22:43:03.237Z290.408° WNW28.934°2025-05-14 22:49:03.237Z225.658° WSW
9 mins2025-05-15 08:13:03.237Z132.493° SE2025-05-15 08:17:03.237Z85.154° E31.426°2025-05-15 08:22:03.237Z9.705° NNE
|